RH
71 70 68 68 71 61 59 62 57 66 51 46 64 51 44 46 39 44 47 51 61 70 74 73 74 73 71 69 67 64 61 65 71 71 73 76 78 83 88 87 86 85 85 88 89 89 84 78 85 86 84 87 81 78 83 86 87 84 82 83 82 83 82 80 79 79 79 82 85 87 89 87 86 84 85 87 89 90 84 88 90 74 74 91 91
68 65 66 63 67 62 58 61 55 60 52 46 58 49 43 42 36 38 42 48 57 66 72 72 73 73 72 70 68 66 63 65 71 73 73 74 76 81 85 85 86 85 85 88 88 84 81 81 85 83 82 89 85 76 80 88 88 84 84 84 83 83 82 81 80 79 79 82 86 87 88 88 88 86 86 87 89 92 86 90 90 66 67 88 83
66 63 64 61 64 62 57 61 55 57 53 47 55 48 43 42 35 37 41 47 55 63 71 72 72 73 73 71 69 67 64 66 70 73 73 72 75 78 79 82 84 83 82 84 84 79 79 87 90 83 82 88 87 81 81 86 84 80 83 83 83 83 82 82 81 80 79 80 84 86 87 87 88 88 87 87 88 92 88 92 88 58 54 72 73
66 62 64 61 62 62 59 62 55 58 58 49 53 48 43 42 35 37 41 46 54 61 70 72 71 73 73 71 70 68 65 65 67 72 74 72 77 74 70 77 83 82 79 77 81 82 79 84 89 83 79 80 82 83 82 82 83 81 82 82 82 82 81 82 81 82 81 80 83 85 86 86 88 87 87 87 88 93 89 92 90 60 47 57 63
67 62 64 63 63 63 62 64 58 62 63 52 53 49 43 42 36 40 46 48 53 60 68 71 71 72 73 72 70 69 66 66 67 71 74 72 76 75 70 74 75 71 72 76 81 82 78 77 83 82 81 80 77 79 81 80 80 80 80 80 80 81 81 81 81 83 83 82 83 84 85 85 88 87 87 87 87 93 86 87 89 67 57 57 52
69 64 65 65 65 66 65 66 63 66 64 54 54 51 44 41 39 45 50 50 55 61 65 69 72 72 72 73 72 70 69 68 67 70 74 72 73 75 75 74 68 60 66 78 77 74 79 76 76 79 80 81 77 76 79 78 77 78 79 79 79 80 81 82 82 82 82 84 83 82 83 83 87 87 88 87 87 94 81 75 80 64 64 62 44
71 67 67 67 67 68 67 68 67 67 64 58 57 52 46 44 42 49 52 51 56 59 63 68 72 73 74 74 73 72 71 70 68 68 72 73 71 72 74 74 74 68 67 73 65 61 75 78 75 78 78 77 77 77 76 76 77 79 79 78 80 80 81 82 82 82 82 86 83 82 81 80 84 84 89 88 87 96 77 67 78 63 60 56 40
74 72 71 69 70 72 71 71 70 68 66 64 60 52 49 47 45 50 51 51 55 57 61 66 69 74 76 76 76 74 73 71 69 69 72 73 71 71 72 73 76 76 73 71 60 51 62 76 78 76 77 77 78 78 77 78 80 80 80 80 82 82 82 81 81 82 83 87 86 86 84 81 82 81 87 89 88 95 76 71 86 64 50 46 40
76 75 74 71 73 75 74 74 72 71 70 68 63 53 51 49 45 50 49 48 53 54 60 66 70 77 78 78 78 75 75 74 71 71 72 72 72 73 72 72 72 74 76 76 69 56 52 67 79 77 77 78 77 78 78 79 80 80 82 83 83 82 82 81 80 82 83 87 88 88 88 85 84 79 82 86 86 93 83 84 89 58 41 42 45
79 78 77 75 74 74 74 74 73 74 73 71 65 54 51 47 43 50 49 47 51 52 60 66 69 76 79 79 80 77 77 76 73 72 71 71 72 72 71 71 70 71 76 78 76 70 56 56 71 79 80 79 77 78 79 79 78 78 80 81 81 81 83 84 83 83 84 89 87 86 89 86 84 80 80 83 85 91 88 91 88 53 36 41 50
80 80 79 76 71 69 71 72 74 76 74 71 62 52 50 44 44 52 49 47 51 52 59 66 69 74 77 80 82 80 78 75 74 74 71 71 71 71 71 70 68 70 74 77 76 76 69 59 66 78 81 78 77 79 79 79 78 78 79 80 82 85 85 84 84 85 85 88 86 86 90 87 85 83 80 82 86 90 88 92 89 58 36 41 53
81 82 79 75 70 67 69 74 76 75 74 70 59 53 51 45 49 57 54 51 53 55 60 66 71 74 77 82 85 85 82 77 76 75 72 72 71 70 72 71 71 71 71 75 77 78 76 70 71 78 79 75 77 80 77 77 78 78 81 81 84 85 83 84 86 86 84 84 82 84 89 88 86 85 82 82 86 91 89 91 92 67 43 43 54
83 84 76 70 70 68 69 76 76 73 76 70 57 55 52 50 57 62 58 55 55 58 61 68 74 77 82 86 88 88 85 81 78 76 74 73 71 69 72 73 73 74 72 74 78 78 77 74 75 78 77 71 74 78 76 76 78 78 81 82 82 83 84 87 87 85 83 83 83 83 87 89 86 86 85 83 86 90 90 90 89 72 52 49 57
84 85 75 65 69 71 70 75 74 74 79 68 54 54 54 57 65 65 62 57 57 60 61 69 76 77 83 88 90 91 87 83 81 79 78 76 74 71 71 73 72 73 73 74 76 76 77 75 74 76 75 70 71 73 71 74 78 78 81 81 79 80 83 85 83 81 81 82 84 82 84 87 86 87 87 86 88 89 90 90 85 70 56 54 61
83 84 77 67 70 72 71 73 72 75 75 62 55 58 59 63 68 68 65 58 58 60 60 67 72 72 78 85 88 91 91 88 84 84 82 80 79 74 71 72 72 72 73 75 76 76 76 75 73 72 73 73 73 71 66 69 75 78 82 79 76 78 81 84 81 79 79 78 78 76 77 82 86 89 88 89 90 89 90 91 85 74 65 64 64
83 82 77 70 72 72 72 72 70 73 69 59 62 65 64 66 68 69 67 61 59 61 61 62 65 69 74 77 80 85 90 89 87 87 85 84 83 78 75 73 72 73 73 75 76 76 76 75 72 70 72 74 75 72 69 70 72 77 81 74 74 79 80 83 81 77 77 75 75 75 74 79 85 87 89 89 88 88 90 92 86 72 71 74 67
82 80 78 73 73 72 73 71 67 71 69 61 66 69 67 68 68 68 68 62 59 62 63 59 59 65 68 72 81 85 84 82 85 88 83 84 86 83 79 77 76 76 75 76 78 78 79 77 73 71 71 73 75 72 71 73 71 75 79 71 71 78 79 81 78 76 76 73 75 76 73 77 83 86 89 89 86 86 89 95 85 60 59 70 65
78 78 78 73 72 72 72 72 68 69 70 65 67 69 69 69 68 68 68 64 59 61 64 60 58 64 67 71 78 81 79 78 86 92 87 82 84 85 83 80 80 81 79 79 79 80 81 80 76 72 71 72 74 72 72 74 71 72 76 72 69 73 79 80 76 75 75 73 74 76 76 80 84 86 88 89 89 87 87 96 85 56 54 67 61
76 75 77 72 70 73 72 73 72 71 71 67 68 69 68 69 69 67 67 64 61 63 65 62 61 64 68 70 72 74 75 76 80 88 93 90 86 86 84 82 83 85 84 82 81 83 82 81 79 76 74 73 73 72 73 74 72 71 74 70 63 67 77 78 74 74 73 72 74 77 81 84 85 88 88 85 86 84 85 95 87 59 56 65 57
73 70 74 73 70 73 73 74 74 74 73 69 68 68 67 67 66 65 66 64 62 64 65 63 63 63 65 67 71 72 72 73 73 76 86 91 90 89 87 84 84 85 85 83 83 84 84 83 81 79 78 76 73 72 73 73 72 73 74 67 60 64 74 76 76 76 75 74 74 75 81 83 82 87 83 67 59 60 72 92 91 68 60 62 51
71 65 70 73 71 73 74 74 76 76 76 73 70 69 67 66 65 63 65 66 64 64 65 63 63 65 66 66 69 70 68 70 72 72 76 83 89 92 89 88 86 85 85 83 83 85 86 85 82 80 81 79 74 73 74 72 71 74 75 70 65 66 67 73 77 77 78 77 74 74 78 81 82 85 82 61 39 36 57 88 92 69 55 53 45
71 64 66 72 72 73 75 75 76 77 77 75 71 69 67 66 65 64 65 67 66 65 66 66 65 64 66 68 69 69 67 69 73 73 73 76 83 87 86 89 91 89 88 85 83 87 89 87 85 83 83 82 77 75 75 72 71 74 75 72 72 68 63 69 74 72 76 77 75 77 77 82 86 85 89 76 46 33 53 86 90 63 47 44 38
73 64 63 70 73 74 75 75 76 77 77 75 71 68 68 66 66 66 66 67 67 66 66 67 67 64 63 65 66 66 66 68 71 70 72 77 82 84 81 81 86 88 90 88 83 85 89 88 87 86 86 86 80 76 75 73 72 74 74 73 75 71 65 69 72 68 71 73 74 78 78 82 88 86 92 84 54 43 59 79 76 51 37 32 29
72 66 63 67 72 75 76 74 75 77 75 72 70 67 67 67 67 67 67 67 68 69 68 67 67 64 63 63 63 64 63 66 70 69 73 77 78 81 79 75 81 85 87 89 86 85 89 89 89 88 88 89 84 78 76 73 72 72 72 73 75 74 68 70 70 64 67 72 71 74 77 81 82 83 89 76 51 51 61 63 57 41 35 38 42
72 68 64 67 71 74 76 75 74 76 74 71 68 67 67 67 68 68 68 69 69 70 70 69 69 67 65 64 64 64 63 66 72 70 72 75 73 77 78 76 81 83 86 92 89 87 90 90 89 89 89 89 85 83 79 74 73 72 71 73 75 75 70 68 71 65 65 72 71 71 76 79 78 81 81 59 41 49 59 59 53 42 47 64 75
74 72 68 69 71 72 74 74 74 75 75 71 67 65 65 67 69 70 71 72 71 72 72 71 71 70 69 68 67 67 66 69 74 73 73 76 76 76 78 81 82 82 88 94 90 88 90 88 87 89 91 90 86 85 82 76 75 74 72 73 74 73 67 65 70 69 64 65 69 71 76 78 78 77 63 38 27 37 46 52 48 42 55 73 84
74 74 73 72 72 71 71 72 73 75 75 72 67 65 65 66 69 70 72 74 74 74 74 73 72 72 72 71 70 69 68 70 74 76 77 77 77 75 77 86 90 87 87 87 86 87 85 84 85 88 91 90 88 86 83 79 77 76 73 74 75 71 65 63 67 70 63 60 65 71 74 77 75 67 47 25 21 26 29 32 31 34 47 55 60
75 74 74 74 72 72 71 71 72 73 75 73 69 66 65 66 69 70 72 74 76 77 77 76 75 74 74 73 72 70 70 71 73 77 78 77 79 78 76 82 88 90 89 85 84 82 78 79 83 87 88 88 88 87 84 82 80 78 76 75 76 72 67 65 66 70 68 64 67 72 75 75 70 66 51 27 20 21 20 21 21 22 29 31 32
77 75 73 74 73 73 73 73 72 73 75 75 73 70 68 68 70 71 71 73 75 77 77 77 76 75 74 74 75 73 71 72 72 75 79 78 79 80 79 81 82 84 87 88 85 77 73 75 79 85 87 87 89 87 85 84 82 81 79 77 77 75 71 66 65 70 74 73 72 74 78 75 68 70 63 37 19 20 20 18 21 19 17 20 22
77 77 76 75 74 74 74 75 74 73 74 76 76 75 72 71 71 71 71 71 73 74 75 77 76 76 76 76 77 76 74 73 72 75 78 80 81 80 80 81 78 76 78 80 78 71 69 73 75 79 84 87 89 87 84 84 84 82 81 80 79 77 74 70 66 67 73 77 75 74 78 76 69 71 70 46 20 20 23 18 24 24 18 27 29
79 78 78 77 76 75 75 76 77 75 74 75 77 77 76 75 75 74 71 70 71 72 74 77 77 77 77 77 78 77 76 74 72 75 78 80 83 81 81 81 77 74 72 72 74 69 67 71 71 74 79 84 88 86 84 84 85 84 82 81 81 78 76 74 68 64 69 77 77 74 74 74 72 70 69 53 24 20 25 22 32 36 27 34 33
79 79 79 79 77 76 74 76 78 77 75 75 76 77 78 78 78 77 74 72 71 71 73 76 77 77 77 77 78 77 77 75 73 75 77 78 81 81 82 80 76 75 73 73 75 69 65 65 66 70 75 81 85 85 83 84 86 86 83 81 82 82 79 76 71 64 66 75 77 75 73 73 75 66 61 53 29 21 28 26 37 45 32 31 29
79 80 81 80 78 76 74 75 78 79 78 76 76 76 78 79 79 79 77 74 72 71 71 73 75 77 76 76 76 76 76 75 74 76 77 78 80 79 78 76 76 77 75 76 75 69 66 63 61 66 73 77 82 83 84 86 86 86 85 82 82 83 82 78 74 67 66 72 75 75 74 74 77 68 58 53 31 22 32 29 33 42 31 25 26
83 80 82 82 79 76 76 77 77 79 79 76 76 76 77 78 79 80 79 76 73 71 70 70 71 73 75 76 76 75 76 76 76 77 77 78 79 78 77 76 79 80 78 78 75 70 71 67 60 64 71 75 79 81 83 85 85 86 87 84 82 82 80 78 78 72 67 69 70 72 73 74 79 73 63 58 37 23 32 32 28 32 27 22 25
88 81 83 84 80 76 76 77 77 78 78 76 77 76 76 78 79 79 78 76 74 72 70 68 67 68 71 74 75 74 74 76 77 76 75 77 77 78 78 77 81 84 80 79 76 70 72 72 65 64 68 71 75 79 82 82 81 84 86 86 84 81 78 77 79 77 72 70 67 69 71 71 76 76 69 66 49 26 26 30 26 25 24 22 25
90 81 82 82 80 76 76 77 76 77 76 75 76 76 75 77 78 78 77 76 74 72 69 67 64 64 66 70 73 72 72 74 75 74 73 74 74 77 79 78 80 85 82 80 81 76 72 73 70 65 64 66 68 75 81 81 81 83 83 84 83 80 79 78 80 81 78 74 70 68 69 69 71 75 73 72 63 38 23 26 24 22 23 23 23
92 82 79 81 80 78 77 76 75 76 75 74 74 74 75 76 76 76 76 75 74 71 69 66 63 62 63 66 70 71 72 72 72 73 73 73 73 74 78 79 80 85 84 82 83 80 73 71 71 67 64 64 64 69 77 80 83 86 85 82 79 78 80 80 81 83 80 77 75 72 71 70 69 72 73 74 72 53 29 22 23 22 23 23 23
93 86 79 79 79 78 77 74 75 76 73 72 73 73 75 76 75 74 74 74 73 71 69 66 63 63 62 63 67 70 71 72 71 71 73 75 75 74 77 80 83 85 86 85 85 83 76 70 69 68 66 66 63 66 74 77 80 86 86 82 77 75 78 79 79 81 79 76 76 74 72 72 70 71 72 72 75 67 42 24 20 22 23 23 24
94 90 81 78 78 78 76 74 74 75 74 73 73 74 76 76 74 73 72 72 71 70 68 65 63 62 62 63 66 68 70 72 71 71 73 76 76 75 76 80 85 86 86 87 87 84 76 70 69 68 68 68 65 63 70 75 77 80 83 81 77 73 74 76 75 76 77 75 74 73 70 70 69 69 70 70 73 72 57 34 21 21 24 24 25
88 88 85 80 76 76 76 74 74 73 74 75 74 75 77 76 74 72 70 69 69 69 68 65 63 62 62 63 65 66 68 71 71 70 72 75 76 77 78 81 84 86 87 88 87 82 75 71 70 69 69 69 67 63 67 75 78 79 79 78 76 73 72 74 73 73 74 73 72 72 71 70 70 71 73 73 73 73 67 47 27 21 23 24 25
79 80 82 83 81 79 75 74 74 73 74 75 74 75 75 75 74 71 69 67 66 67 67 65 63 62 62 63 64 65 66 68 70 70 71 73 75 77 80 82 83 86 88 88 84 78 74 72 70 70 70 70 70 67 67 73 77 77 76 76 75 72 70 72 72 70 69 67 68 71 72 72 73 74 76 78 77 75 72 58 37 24 23 25 24
88 82 79 80 84 85 79 75 74 73 73 73 73 73 73 72 72 70 68 67 65 66 66 65 63 62 61 61 63 64 66 66 67 69 70 72 73 76 80 82 82 84 87 87 82 73 70 71 71 71 73 72 71 70 69 71 74 75 74 74 73 70 69 71 71 68 65 64 66 72 74 72 73 76 77 77 77 77 75 67 49 31 23 24 24
96 92 86 81 83 87 85 78 75 74 74 73 74 73 71 70 70 68 67 67 66 65 65 65 64 62 61 61 61 62 64 64 65 66 68 70 72 74 78 81 81 81 83 86 83 72 64 67 70 70 72 73 71 70 68 68 71 74 74 74 73 70 70 71 69 69 70 66 66 73 77 75 74 76 77 76 75 75 75 69 56 37 25 24 24
94 92 91 87 85 88 89 83 77 75 74 73 73 73 70 69 68 68 67 68 67 67 66 65 64 63 61 61 61 62 63 63 64 64 65 67 70 73 78 80 80 80 79 79 80 72 62 62 68 69 70 70 70 70 67 65 69 72 72 73 72 70 72 71 66 67 71 69 68 75 80 78 77 77 77 76 74 74 73 68 59 44 30 24 24
90 90 89 88 85 84 87 86 80 75 73 73 72 71 70 68 67 67 67 68 67 66 66 65 63 62 62 62 62 62 63 63 63 64 65 66 69 73 78 80 80 81 80 76 74 71 64 61 65 68 67 67 68 69 66 63 64 69 71 72 71 69 70 69 63 61 65 67 69 75 79 79 79 79 78 75 75 76 75 71 65 53 38 27 24
89 91 89 89 88 83 85 89 85 75 70 71 71 70 69 68 67 66 66 68 68 66 65 64 64 62 62 62 62 63 63 64 64 64 66 67 70 75 79 80 80 82 82 77 72 70 68 63 63 66 67 66 66 67 66 63 61 63 67 69 70 69 68 66 62 56 58 64 66 70 76 77 77 79 77 74 74 76 74 71 68 62 51 37 28
83 89 88 86 86 84 85 90 89 79 71 69 70 69 67 67 67 66 66 68 68 67 66 64 64 63 62 62 63 63 65 66 66 66 67 68 71 76 80 82 82 82 83 80 74 71 71 67 63 64 66 65 66 66 65 63 60 59 61 62 64 66 65 63 60 56 57 61 64 67 72 72 73 77 77 73 73 74 72 70 67 65 60 51 40
73 84 88 85 83 82 79 83 89 86 75 69 70 70 68 68 67 64 65 68 69 68 67 65 64 64 63 64 64 65 66 67 67 67 68 71 75 79 82 85 86 85 84 84 79 74 74 71 66 66 67 65 66 68 67 64 60 57 57 59 60 62 64 64 62 59 59 62 63 64 67 66 67 71 73 72 72 72 70 69 67 64 63 61 56
75 79 85 86 86 81 77 81 90 93 84 72 68 69 69 69 69 66 67 68 68 67 66 66 65 65 65 64 64 66 67 67 67 67 70 74 78 81 84 87 89 89 88 88 86 81 78 74 70 69 68 65 64 66 68 69 64 57 57 61 62 63 66 68 68 65 63 63 63 62 63 63 63 64 66 68 70 70 68 66 66 65 63 62 61
78 73 73 80 86 83 78 76 77 85 90 82 70 67 69 70 71 72 71 69 68 68 68 67 67 67 67 66 65 67 69 68 67 68 73 77 80 84 87 89 92 92 90 91 91 88 84 80 74 71 70 67 63 61 65 70 70 64 60 61 63 65 68 70 69 67 65 63 62 62 63 63 63 62 63 65 67 68 66 65 63 63 63 61 60
73 66 64 71 82 85 83 78 70 73 88 89 76 68 68 72 74 75 74 72 71 71 71 71 71 70 69 68 67 67 69 69 69 70 74 78 81 85 89 91 93 92 91 93 95 93 90 86 80 75 72 69 66 61 62 67 72 71 67 63 63 66 69 71 69 68 68 65 63 63 64 64 65 64 63 65 67 66 63 62 61 59 59 59 58
Wind_Speed
19 18 18 17 16 15 17 16 15 15 13 11 13 12 10 12 9 7 8 8 8 7 8 9 8 8 8 8 9 10 11 13 12 13 15 13 10 11 11 11 11 11 11 12 11 11 10 11 12 12 13 13 14 13 13 14 14 15 14 15 15 15 15 15 15 14 14 14 14 15 15 15 16 16 16 16 17 18 18 17 17 18 19 20 19
19 18 17 18 16 16 18 17 16 16 15 11 11 12 10 8 8 8 8 8 8 8 8 9 8 8 8 8 9 9 10 12 13 13 13 12 12 12 11 10 11 11 10 11 10 10 10 11 12 11 11 12 13 13 12 12 13 13 13 14 14 14 14 14 14 14 13 14 14 15 14 14 15 15 16 16 16 17 17 17 17 17 19 19 19
19 19 17 18 17 17 18 17 17 15 15 14 12 12 10 8 9 8 8 9 9 8 8 9 9 9 9 8 9 8 9 11 13 12 11 10 11 12 12 11 11 11 10 10 10 10 9 10 11 11 10 11 12 12 11 11 12 13 13 13 13 14 14 13 13 13 13 13 13 14 14 14 14 15 16 15 15 15 17 16 16 17 17 18 18
18 19 17 18 17 17 17 16 17 15 14 15 13 13 11 9 9 8 7 9 9 9 9 10 10 10 9 8 8 8 8 10 12 12 10 11 11 10 12 12 11 11 11 10 9 9 9 9 10 10 10 10 11 11 11 12 12 12 12 12 13 13 13 13 13 12 13 13 12 13 13 13 12 14 15 15 14 14 16 16 16 16 17 17 17
17 19 17 19 17 17 18 15 17 15 15 16 13 14 12 10 11 8 8 8 9 10 9 9 10 11 10 8 9 7 7 9 10 11 11 12 11 9 10 12 10 11 13 11 8 7 9 8 8 9 10 10 9 10 11 11 11 11 11 11 12 12 12 12 12 12 12 12 12 12 12 12 12 13 14 14 13 14 14 15 15 16 16 16 17
17 18 17 19 18 18 18 16 16 15 15 16 15 15 13 12 12 9 9 9 10 11 9 9 10 10 10 9 9 8 7 8 9 10 11 11 12 11 10 10 10 12 14 12 7 7 10 8 7 8 8 9 9 9 10 10 10 10 10 11 11 11 11 11 11 11 12 12 12 12 12 12 11 12 14 14 13 13 13 14 15 15 15 16 16
19 19 17 18 18 18 19 17 17 15 16 17 16 16 14 13 14 11 11 10 10 10 10 10 10 11 10 9 9 9 7 8 8 8 10 11 12 13 11 9 10 12 13 11 8 8 10 9 7 8 8 8 9 9 9 9 10 10 10 10 10 10 10 10 11 11 11 11 11 11 11 11 11 11 13 13 13 12 13 14 14 14 15 16 16
19 21 18 18 18 18 18 17 17 16 17 17 17 17 15 14 15 13 13 12 10 10 11 11 10 11 11 9 10 9 7 7 9 7 8 11 11 12 10 9 13 13 11 9 8 9 9 10 9 8 8 8 8 9 9 9 9 10 9 10 10 10 10 10 10 10 10 10 10 11 10 11 11 10 11 12 13 12 12 14 14 13 14 15 15
20 22 20 18 18 18 18 18 18 17 17 18 18 17 16 16 16 14 14 13 12 11 12 12 10 11 11 9 9 9 7 7 8 8 8 9 10 12 10 10 14 12 11 10 8 8 9 10 10 8 8 9 9 9 9 9 8 9 8 9 9 9 9 9 10 9 9 9 9 10 10 10 10 10 10 11 12 12 12 13 12 12 14 14 14
21 22 22 19 17 18 18 18 19 18 17 19 19 17 16 17 17 14 14 14 13 13 13 13 12 11 11 10 10 9 7 8 8 7 7 7 8 11 9 10 12 11 13 13 8 7 8 10 10 10 10 9 9 9 8 8 8 8 8 8 8 8 9 9 9 9 9 9 9 9 9 9 10 10 9 10 11 11 12 12 12 12 13 14 14
22 23 23 20 17 18 19 19 20 18 18 19 19 18 17 18 17 15 14 13 12 15 15 13 12 11 11 10 10 9 8 8 8 7 6 6 7 9 9 10 10 10 13 12 7 7 7 7 10 12 12 9 9 10 9 8 8 8 7 7 8 8 8 8 8 9 8 8 8 9 9 9 9 9 9 9 9 10 11 11 11 11 12 13 13
22 23 24 22 18 18 20 20 19 18 18 19 20 19 18 19 18 16 16 13 10 16 16 13 12 11 11 10 9 8 8 8 9 7 6 6 6 7 8 9 9 10 12 10 9 8 6 5 10 13 11 10 11 10 10 9 9 8 8 8 8 8 7 8 8 8 8 8 8 8 9 8 8 8 9 8 9 10 10 10 10 11 11 12 13
23 23 24 24 19 19 22 21 19 19 18 19 20 18 18 20 18 16 17 15 11 16 16 14 13 11 10 9 8 7 7 8 9 9 8 7 7 7 8 9 10 10 11 12 11 9 7 7 12 15 10 10 12 11 11 10 10 9 9 9 8 8 7 8 8 8 8 8 8 8 8 8 8 8 8 8 8 9 9 9 10 10 11 12 12
25 23 24 25 20 20 23 22 20 19 18 19 20 18 19 20 18 17 17 16 12 16 18 16 14 12 11 8 6 6 6 7 8 10 10 9 9 8 8 9 10 11 12 12 11 11 11 10 15 16 10 9 12 12 12 12 11 10 10 9 8 8 7 7 7 7 8 7 8 7 8 8 8 8 8 8 8 8 9 8 9 9 10 11 12
26 24 24 25 22 21 23 22 20 19 19 20 19 19 22 21 20 18 18 16 12 17 20 16 15 15 12 6 4 4 4 6 9 10 11 11 11 10 9 10 11 12 13 13 12 12 13 12 15 16 11 10 11 10 12 14 13 12 10 9 10 9 7 8 7 7 7 7 7 7 7 7 8 8 8 8 8 8 8 8 8 9 10 11 11
26 25 25 26 23 22 23 22 21 20 20 21 19 19 22 22 20 19 18 17 14 17 20 17 16 14 9 4 4 4 3 6 10 10 11 11 11 12 12 12 12 12 13 14 14 14 14 13 14 16 14 13 11 8 10 14 15 14 11 9 10 10 8 8 8 7 7 7 7 7 7 7 7 8 8 8 7 8 8 8 8 9 9 10 10
26 26 26 27 25 23 23 22 21 21 21 21 20 20 21 21 21 19 19 19 16 17 19 18 18 14 7 3 4 3 2 6 10 7 10 13 13 13 13 13 13 14 14 14 15 15 15 14 15 17 16 15 14 9 10 15 16 15 13 9 11 11 10 9 8 7 7 7 7 7 7 7 7 8 7 7 7 8 8 7 7 8 9 9 10
26 26 25 26 26 23 23 23 21 22 22 22 21 21 22 21 21 21 20 20 17 16 19 18 17 16 12 5 3 2 1 8 7 3 8 13 14 14 15 15 14 14 15 14 15 16 17 17 16 16 15 16 15 11 12 17 18 16 14 11 11 12 11 10 9 8 8 7 7 6 7 7 7 7 7 7 7 7 8 7 6 7 8 9 9
26 26 25 26 27 24 23 23 23 23 23 23 22 22 23 21 22 22 20 21 19 15 19 19 15 15 14 9 6 5 5 8 5 2 5 8 13 15 16 16 15 14 15 15 16 18 18 19 18 16 15 16 15 13 17 19 19 18 14 11 12 13 13 12 10 10 8 8 7 7 7 7 7 7 7 7 7 7 7 7 6 6 8 8 8
27 27 25 26 27 26 24 23 24 24 24 24 23 23 23 22 22 23 20 21 20 15 17 20 16 14 14 12 9 9 10 9 7 5 4 2 7 11 14 16 16 15 15 16 18 20 19 19 20 18 16 16 15 15 20 20 18 18 15 12 13 13 14 14 12 11 9 8 8 7 7 7 7 7 7 6 5 6 7 8 7 6 7 7 7
27 28 26 26 27 27 25 24 25 25 25 24 23 23 24 23 23 24 22 21 21 17 16 19 18 16 15 15 12 11 12 11 10 10 6 3 4 5 10 13 14 17 18 17 18 20 20 19 19 20 18 17 16 15 17 19 18 18 16 14 14 13 14 15 14 12 11 9 8 8 8 7 7 8 7 5 4 5 7 8 7 5 6 6 7
28 29 28 27 28 28 26 26 26 25 25 24 23 23 24 23 22 24 24 21 20 20 16 16 18 17 15 15 14 12 11 9 11 12 8 5 4 5 10 12 11 16 20 21 19 18 20 18 17 20 20 18 19 17 16 16 17 19 19 16 16 14 14 16 16 14 12 11 9 9 8 8 8 8 7 6 5 5 7 8 7 5 5 5 6
28 29 29 28 27 28 26 26 26 25 25 24 23 23 24 24 21 22 24 22 20 21 19 16 15 16 15 15 15 14 12 9 10 12 8 5 5 5 10 13 12 14 19 22 21 18 19 20 18 19 20 20 20 20 18 16 17 21 21 19 18 16 15 18 18 16 14 12 11 10 9 8 8 8 8 7 5 5 7 8 7 5 5 5 5
28 29 30 29 28 28 27 26 26 26 25 24 23 23 24 24 22 21 23 23 21 20 20 18 16 15 16 15 14 14 13 10 9 11 9 7 7 6 7 11 8 9 16 21 20 18 19 20 20 19 21 21 21 21 20 19 19 20 20 19 20 18 16 18 18 17 16 14 12 11 10 9 9 9 9 7 5 6 7 8 7 6 6 6 5
29 30 31 30 29 29 28 27 27 27 26 25 24 23 24 25 24 22 22 23 22 21 20 20 18 16 16 15 14 13 12 10 10 10 9 8 8 6 6 6 3 3 12 18 18 17 17 20 20 19 20 22 21 21 21 21 20 19 19 19 20 19 18 19 19 18 17 15 14 12 11 11 10 10 9 7 6 7 8 8 8 7 7 7 6
31 31 32 31 29 29 29 28 28 28 27 26 25 23 24 25 24 23 22 23 22 21 21 20 19 18 17 16 15 15 13 12 11 11 10 11 11 9 6 4 2 4 10 15 16 14 15 18 19 19 20 22 23 22 21 22 21 21 21 20 21 20 18 19 20 19 18 16 15 14 13 13 12 11 9 7 6 7 8 9 8 8 8 8 8
31 31 32 32 30 28 30 29 27 28 28 27 26 24 23 24 25 23 22 22 22 22 21 20 20 19 19 18 16 16 15 14 13 12 12 13 13 11 8 5 2 3 7 11 15 15 16 17 18 20 21 21 23 24 22 23 22 21 22 22 22 22 19 19 20 20 19 16 16 17 16 15 14 10 8 7 7 8 9 9 9 9 9 9 8
30 32 33 34 31 29 30 29 28 27 28 28 27 26 24 23 24 24 22 22 22 22 22 22 21 20 20 20 18 17 16 15 15 14 14 14 13 11 11 9 5 3 4 7 9 14 18 19 18 21 22 22 23 24 23 23 22 21 22 23 24 23 21 20 20 21 21 17 16 18 19 18 16 11 7 7 8 8 10 10 10 10 10 9 9
30 32 34 35 34 31 30 30 28 27 28 28 27 26 25 25 25 25 23 22 22 22 23 23 22 21 21 21 21 19 17 16 17 15 14 15 15 13 13 14 11 6 4 4 7 12 17 20 19 20 22 22 23 24 24 24 23 21 23 25 25 24 23 21 21 22 23 20 18 19 20 20 18 14 9 8 9 9 10 11 11 11 10 10 9
31 32 34 35 35 34 32 30 29 28 27 28 28 27 26 26 26 25 25 24 23 22 23 23 22 22 22 22 22 21 20 18 17 17 17 16 16 16 16 15 14 11 5 3 6 12 19 21 20 22 23 22 24 25 25 25 24 23 25 27 26 25 24 22 22 24 24 22 21 22 22 21 19 16 13 11 10 11 11 13 13 12 11 11 11
32 33 34 35 35 35 34 32 31 30 28 28 29 28 27 27 27 25 25 25 24 23 22 22 22 22 23 23 23 23 22 21 20 19 19 18 18 18 17 16 15 13 8 4 3 7 20 24 21 23 25 23 24 26 25 25 25 24 26 27 26 25 24 23 24 25 25 24 24 24 24 23 20 17 15 13 12 12 13 14 14 14 13 13 13
34 35 35 34 35 36 35 33 32 32 31 29 30 29 28 28 28 27 26 25 25 24 22 21 22 23 23 24 25 25 23 22 21 21 20 20 20 19 18 17 15 12 9 7 4 4 14 21 21 23 26 25 25 26 25 25 25 25 27 27 26 24 24 24 25 26 26 25 26 27 26 25 22 19 17 16 14 14 15 16 16 16 15 15 14
35 36 35 34 35 35 35 34 33 33 33 31 31 31 29 29 29 28 28 27 26 25 24 23 22 23 24 25 25 25 24 23 22 22 21 21 21 19 17 15 14 14 11 9 8 4 9 15 18 21 25 26 25 26 26 25 24 25 27 28 26 25 25 25 26 27 27 27 28 28 27 26 24 21 19 17 16 16 17 17 18 18 17 17 15
34 36 36 35 35 35 35 35 34 34 34 33 32 32 31 30 30 30 30 29 28 27 27 26 24 24 24 26 26 25 24 24 23 23 22 22 20 19 18 15 13 15 14 12 11 7 9 14 16 18 25 27 25 25 27 26 26 26 28 29 26 25 26 26 26 27 29 29 29 29 29 28 26 24 22 19 18 18 19 19 20 20 19 18 16
34 35 36 36 36 35 35 36 36 35 35 35 34 34 34 33 31 31 31 31 30 29 29 28 26 25 26 27 27 26 25 25 25 24 23 22 22 21 20 18 15 15 16 15 14 10 11 16 16 17 24 26 24 26 27 26 25 26 28 28 26 25 26 26 26 27 29 30 31 30 29 29 28 26 24 22 20 20 20 21 21 21 20 19 18
36 35 35 35 34 35 36 36 36 36 36 36 36 36 36 35 33 32 32 32 32 31 30 29 28 28 27 28 28 27 27 27 27 26 25 24 24 23 22 20 19 17 17 18 17 13 11 16 18 17 21 24 23 25 27 25 24 26 28 28 26 25 26 26 27 28 28 30 32 32 30 29 28 27 26 25 23 21 22 23 23 22 22 21 20
39 36 36 35 33 33 34 36 36 37 37 37 37 37 37 37 36 34 34 34 33 33 32 31 30 29 28 28 28 28 28 28 28 28 27 25 24 24 23 21 21 20 18 19 19 16 12 14 18 18 21 24 22 23 28 27 24 25 27 27 26 26 25 25 27 27 27 28 30 32 32 31 29 28 28 27 25 24 24 24 24 24 23 23 22
43 38 37 36 35 35 35 36 36 37 38 38 38 38 38 37 36 35 34 35 34 33 33 32 31 30 30 29 28 29 29 29 29 28 27 27 25 24 24 22 22 22 21 20 20 20 17 15 17 19 21 25 23 22 27 30 26 25 27 26 26 26 27 26 26 27 27 28 30 32 32 32 32 30 29 29 28 27 26 26 26 25 25 25 25
45 41 37 37 37 37 37 37 38 37 38 39 39 39 38 37 37 36 35 35 35 34 33 33 32 31 31 30 30 30 31 31 30 28 27 27 26 25 24 23 23 23 23 23 22 22 20 17 17 19 22 24 25 23 25 30 29 27 29 28 25 26 28 28 29 29 29 30 31 31 30 30 31 32 31 31 31 29 28 28 28 27 27 28 27
45 41 35 35 37 38 38 37 39 39 38 38 39 39 39 38 38 37 36 36 35 34 33 33 33 32 32 32 31 31 32 32 31 30 29 28 27 27 26 24 24 24 23 24 24 23 23 20 18 19 21 22 25 24 24 29 29 27 30 31 28 27 28 29 30 30 30 31 33 33 32 31 32 34 34 33 33 32 31 30 30 29 29 30 29
47 41 34 31 32 35 37 37 37 38 38 37 38 40 40 39 39 38 37 37 36 35 34 33 33 33 33 33 33 33 33 33 32 31 31 31 30 30 29 27 26 25 23 23 24 23 24 22 19 19 21 21 25 26 25 30 32 29 29 30 28 28 28 28 30 32 30 30 33 35 36 36 37 37 37 37 36 35 34 33 32 32 32 32 32
43 41 38 34 30 31 34 36 37 38 37 37 39 41 42 41 41 39 38 38 38 36 36 35 34 34 34 34 34 34 33 33 34 34 33 33 33 32 32 31 30 28 26 25 24 24 24 24 22 21 20 21 26 29 27 29 31 30 29 29 28 27 26 25 27 31 33 32 33 36 38 38 39 39 39 41 40 38 38 37 36 35 35 35 35
33 32 31 32 32 31 32 34 37 38 38 38 40 43 44 44 42 41 39 40 40 39 37 36 35 35 34 34 34 34 34 33 34 35 36 36 36 34 34 34 32 31 31 29 27 26 25 24 24 23 22 22 25 29 28 27 29 31 31 30 29 27 25 23 21 24 31 35 34 35 37 38 40 40 40 41 42 41 42 41 40 38 38 38 37
27 25 24 26 29 31 33 34 36 38 38 41 43 45 48 48 45 43 42 42 42 41 39 37 36 36 35 34 33 33 35 36 34 34 36 37 38 38 36 35 33 32 33 33 30 29 28 26 25 25 26 23 23 28 30 28 28 31 32 31 31 29 27 25 23 23 28 34 35 32 32 35 38 39 40 40 41 42 44 44 42 40 40 40 40
26 25 26 28 30 32 34 37 37 37 38 41 45 48 51 51 49 45 44 44 44 43 41 39 37 37 36 35 34 32 33 35 35 35 35 37 39 40 38 36 35 34 34 34 32 29 28 29 29 27 27 27 25 28 32 32 29 29 31 31 32 31 28 28 29 27 27 33 35 30 28 32 36 38 40 40 39 40 42 43 44 44 43 43 43
26 25 26 27 29 30 33 38 40 38 39 42 45 49 51 52 53 50 44 42 43 43 43 43 40 39 39 37 36 36 32 31 34 36 36 36 38 40 41 40 39 38 36 35 34 31 30 32 34 31 29 29 30 30 31 33 33 31 31 31 31 31 32 32 31 29 26 31 36 30 24 28 34 37 40 40 37 38 40 41 42 44 44 45 45
28 28 28 28 29 30 32 38 42 39 38 41 43 48 51 51 53 53 45 40 41 41 41 43 42 40 40 38 37 37 35 31 32 35 36 37 38 39 41 41 41 41 40 38 38 36 34 35 36 34 29 29 30 29 28 32 38 38 34 32 31 30 30 30 29 27 25 28 35 31 23 26 33 36 39 39 36 36 39 39 39 40 42 43 45
33 30 29 29 31 31 32 36 43 43 40 42 43 46 49 51 53 54 47 39 37 39 39 40 42 40 39 38 37 36 36 35 35 35 36 36 37 38 39 40 38 38 39 40 39 38 35 33 34 33 30 29 29 27 23 26 35 39 34 30 31 29 26 24 24 26 26 28 34 36 28 24 30 35 35 35 36 36 38 39 39 39 39 41 42
33 32 31 31 33 34 34 34 37 40 40 44 48 49 50 52 54 53 48 39 34 37 38 38 40 40 39 39 38 36 37 39 41 40 38 35 36 37 38 38 35 34 37 37 36 37 37 35 33 33 32 31 32 30 23 19 26 34 33 29 29 29 25 20 19 23 26 28 34 39 34 27 28 31 30 30 34 37 37 37 39 39 39 40 41
33 36 37 36 36 38 40 39 39 40 43 43 47 52 53 55 55 53 47 40 34 34 35 36 36 37 37 38 40 39 38 41 42 42 39 37 36 35 37 35 32 33 37 35 32 35 37 36 35 34 34 35 36 35 31 23 21 28 34 33 31 30 27 22 20 22 24 28 34 37 34 29 28 29 27 25 29 36 38 37 38 40 39 38 40
37 38 40 39 38 37 38 40 42 42 43 44 43 48 52 54 56 53 46 40 35 32 32 33 32 33 34 36 39 40 40 40 41 40 40 39 37 35 35 33 31 35 39 35 32 34 34 35 37 38 38 39 39 39 38 33 26 25 32 35 33 32 29 26 24 20 17 22 32 36 33 29 27 29 27 20 16 25 36 37 35 38 40 38 39
Wind_Direction
178 187 191 184 184 178 175 178 174 185 189 170 181 204 222 213 202 186 166 152 147 140 138 134 127 125 115 106 104 105 112 122 118 109 116 115 106 108 107 107 109 109 107 108 107 100 97 104 105 100 101 101 98 97 97 98 96 96 95 92 90 87 85 83 81 79 77 75 73 71 70 69 67 64 63 60 59 61 58 54 53 54 55 52 51
182 188 192 187 187 179 178 180 176 186 191 178 182 198 212 201 185 185 168 155 151 145 143 134 132 132 122 118 115 114 118 125 128 124 125 119 109 111 105 105 111 112 110 109 105 97 99 109 108 102 104 105 101 100 101 98 97 96 96 95 93 90 87 85 83 80 78 75 73 72 68 67 67 66 64 61 59 60 59 56 53 54 56 53 51
184 186 192 189 187 182 180 183 179 185 189 182 182 190 200 189 184 195 174 156 152 153 151 140 140 135 127 128 124 125 125 128 132 130 127 116 115 123 123 122 119 117 114 110 111 102 100 110 109 105 105 105 103 104 103 99 99 99 98 96 94 92 90 87 85 83 80 76 73 72 69 66 66 67 65 62 60 60 60 57 54 55 56 54 52
185 186 192 189 189 185 182 184 181 185 187 183 184 185 192 187 184 195 170 152 151 155 157 150 145 138 136 137 130 129 130 134 136 133 126 119 129 137 132 134 131 132 127 118 124 112 104 111 109 110 112 109 104 104 106 102 102 101 99 98 96 94 92 90 87 85 83 79 75 72 71 68 64 66 67 64 60 59 61 58 54 54 55 54 52
187 188 193 189 191 189 185 186 182 188 187 182 187 185 186 186 184 188 166 154 150 152 159 156 147 142 142 139 135 136 134 138 141 144 139 132 148 150 130 135 139 143 134 126 138 124 112 116 109 111 116 115 111 109 110 106 105 104 101 99 97 97 95 93 90 86 85 82 78 74 73 71 66 66 67 66 62 58 60 60 57 54 53 53 52
190 190 193 189 192 190 189 189 184 189 185 182 188 183 185 186 182 180 170 167 158 156 162 155 146 144 144 142 144 147 143 139 141 151 151 145 160 163 145 142 142 141 136 135 149 130 119 122 116 117 116 115 115 114 113 110 110 109 106 104 102 100 98 96 93 89 87 85 82 78 74 72 68 66 67 67 65 59 57 58 58 55 54 52 51
192 192 191 190 193 191 191 190 186 189 184 183 187 184 186 184 181 179 176 178 166 163 166 157 153 150 148 149 148 150 150 147 146 155 160 156 164 169 162 155 151 147 143 146 148 132 130 132 127 126 124 122 122 120 118 116 115 113 110 108 105 103 102 99 96 94 91 89 86 83 79 75 71 66 67 67 65 61 55 57 56 53 55 52 51
192 192 190 191 192 191 192 190 187 188 186 185 183 184 187 181 182 181 179 183 172 169 167 158 159 154 152 157 149 149 157 160 158 156 164 164 161 166 169 167 168 164 154 151 143 136 140 141 139 136 133 129 128 127 126 123 120 118 115 112 110 108 105 101 99 97 93 92 89 87 83 79 76 69 66 66 65 61 54 57 57 51 55 53 51
190 192 189 190 193 191 191 190 188 186 186 187 182 185 189 182 186 186 184 186 175 172 165 154 163 157 153 159 153 154 161 164 163 156 163 165 158 168 175 173 177 176 166 164 150 140 146 148 147 145 145 141 136 134 132 131 127 123 122 118 117 115 110 106 104 102 97 94 91 90 87 83 80 75 70 66 66 63 55 58 57 50 55 54 51
189 192 190 189 192 192 191 190 188 185 187 189 184 188 191 184 188 188 187 192 182 171 160 155 167 162 158 161 154 159 168 168 167 162 170 171 164 172 171 168 177 176 170 172 165 148 150 157 158 156 160 157 145 144 141 136 133 129 127 122 119 119 117 114 110 108 104 98 96 93 90 87 84 80 76 70 67 66 59 59 55 50 56 55 52
189 193 191 189 191 193 190 187 185 184 187 190 187 190 192 185 188 186 185 199 188 165 155 154 163 163 165 164 155 161 167 169 173 171 181 183 171 171 165 166 172 171 174 179 180 165 152 154 162 166 172 168 152 151 149 142 140 137 133 127 123 123 121 122 119 113 109 104 103 99 94 92 89 84 81 74 70 69 65 62 57 52 55 55 53
189 193 192 188 189 192 188 184 183 184 188 191 190 192 191 184 187 185 183 202 186 157 154 154 160 161 163 163 156 162 167 170 178 176 183 188 181 177 171 171 168 169 182 185 176 171 162 154 163 172 178 172 163 159 155 150 148 143 139 135 130 129 125 124 122 118 117 112 109 106 101 99 96 91 86 80 74 72 69 65 62 56 55 56 54
188 192 192 187 188 190 186 183 183 186 190 191 191 192 188 182 184 183 186 201 181 154 156 157 158 156 156 164 161 162 173 177 183 184 186 190 190 192 187 183 176 176 187 184 180 184 179 165 171 180 186 174 171 169 164 158 154 147 143 141 137 134 130 127 128 126 124 118 113 111 107 105 102 98 93 89 82 76 73 68 65 61 58 58 56
188 190 191 188 187 189 186 183 184 188 191 190 193 192 184 180 181 183 189 200 183 160 161 160 165 168 157 159 161 163 181 187 194 197 195 198 197 196 197 193 186 185 188 185 189 193 185 175 177 188 196 179 175 176 171 164 161 156 150 147 144 142 140 137 138 135 130 124 121 118 115 112 108 104 99 96 91 83 80 73 67 65 62 60 57
188 189 190 188 187 187 185 183 183 188 190 188 194 189 180 181 185 184 188 198 190 168 167 169 178 177 162 162 167 159 185 199 206 208 201 205 204 200 204 205 197 197 200 196 192 191 190 188 186 195 203 184 179 182 172 169 169 166 159 152 147 148 149 145 144 142 137 131 127 124 121 119 113 110 106 102 99 92 87 80 73 70 66 63 57
188 188 190 187 186 187 185 183 184 189 190 189 192 184 177 182 187 186 187 194 193 173 173 185 189 178 166 175 170 166 215 198 196 209 204 205 210 206 212 217 209 206 209 206 198 195 197 197 193 198 198 184 187 191 172 172 177 174 172 162 150 153 156 153 152 147 144 138 132 129 126 124 120 117 114 111 107 101 96 88 81 76 72 68 60
188 188 190 188 186 187 184 185 187 188 190 190 190 183 180 184 187 189 190 191 193 176 173 193 205 204 203 185 156 185 249 161 168 197 202 206 215 211 215 220 215 212 211 207 202 201 202 198 195 199 199 191 198 197 171 178 185 182 181 171 154 158 160 158 159 154 150 145 138 136 132 128 127 123 120 117 111 106 104 97 86 79 76 73 64
190 188 189 189 187 186 184 187 189 188 190 191 189 185 184 188 190 194 195 193 194 179 171 189 214 225 232 232 220 251 154 147 150 164 194 208 217 214 218 220 219 220 215 208 204 204 207 204 198 200 199 192 199 201 182 188 195 191 189 183 165 162 164 163 163 159 155 151 145 142 137 133 132 129 126 124 117 113 111 107 94 80 79 77 69
190 188 190 190 188 187 186 188 190 190 190 190 190 188 187 190 193 197 199 198 201 189 174 184 205 221 234 243 239 235 179 162 163 137 170 210 216 215 221 221 220 221 218 214 210 208 213 211 203 201 202 198 203 207 197 196 200 198 198 194 176 169 169 167 165 162 158 156 152 148 145 142 139 137 136 134 130 127 120 114 104 87 83 82 74
191 189 190 191 189 188 188 190 192 193 193 192 192 190 189 193 194 196 199 201 210 207 180 180 192 206 224 234 232 228 208 199 205 184 147 175 205 213 222 222 222 221 218 217 215 215 216 214 208 203 206 208 205 203 201 201 200 200 203 196 180 175 173 169 169 168 162 161 159 156 154 151 148 147 146 146 146 143 131 123 116 101 94 89 79
193 191 190 191 191 189 190 193 194 195 195 195 195 192 193 196 194 195 199 200 209 216 194 184 191 198 210 217 222 229 223 222 220 206 192 174 174 193 208 214 223 224 221 219 218 218 217 219 216 208 206 207 202 200 206 206 201 199 203 200 188 182 175 170 173 176 171 169 166 164 163 158 156 155 154 153 149 151 142 132 130 121 107 100 86
193 193 191 192 192 190 193 196 196 196 196 195 195 194 196 199 196 195 200 202 206 214 210 197 194 196 199 200 205 216 220 218 211 208 208 190 170 178 189 194 210 219 219 219 218 216 215 220 220 209 206 207 204 201 205 208 203 199 202 206 199 192 179 173 177 181 180 179 174 172 171 166 164 162 161 158 149 153 150 141 143 140 122 113 98
192 193 192 192 192 191 194 198 198 198 197 195 194 194 197 200 198 197 200 202 205 211 216 213 200 196 200 199 198 207 214 212 203 205 204 173 156 171 192 198 203 208 213 217 218 214 215 220 218 210 208 209 206 203 203 206 202 200 205 208 206 200 185 179 182 182 182 185 182 181 179 174 173 171 168 171 168 159 157 155 157 153 135 123 107
191 191 192 192 192 193 195 198 198 199 198 195 194 195 196 198 198 200 201 201 204 207 212 217 211 204 206 206 202 205 216 220 206 203 202 181 167 167 189 201 203 208 210 211 212 214 215 216 215 214 211 208 207 206 206 205 204 206 208 207 208 205 191 186 187 184 184 188 189 187 187 182 180 180 179 186 188 173 168 171 169 157 140 126 112
190 189 191 192 192 193 195 198 198 200 199 195 194 196 197 197 198 200 201 201 203 204 207 212 213 210 209 211 210 211 218 224 215 210 207 191 188 191 184 185 187 195 195 195 201 210 213 212 213 216 212 206 205 208 209 208 211 214 210 206 209 208 198 193 191 187 187 191 193 191 189 187 184 184 192 203 199 185 180 179 174 160 144 134 130
189 188 189 191 193 194 196 198 199 201 201 196 193 196 198 198 199 199 201 203 203 204 207 210 211 211 211 212 215 216 218 221 217 215 207 193 197 206 181 156 164 155 170 184 193 201 206 209 214 216 211 205 204 207 209 209 213 216 212 208 208 207 202 198 195 193 192 191 194 196 190 188 190 192 205 220 210 195 191 188 182 168 156 152 152
189 188 188 190 193 195 195 197 198 200 201 197 193 194 197 198 198 199 202 205 205 205 207 208 210 211 210 210 212 213 215 220 217 210 207 200 202 207 185 154 158 164 177 190 192 200 205 204 210 214 208 204 207 208 205 209 214 215 214 210 206 205 204 202 200 199 197 192 195 202 197 196 202 208 219 227 216 207 203 198 189 178 172 172 172
190 188 188 189 192 195 196 197 198 200 201 198 193 193 196 197 196 197 201 205 207 208 208 208 210 211 211 211 211 210 211 219 222 216 212 207 205 209 198 184 182 179 197 200 196 209 208 195 197 210 209 204 206 208 205 208 213 213 213 211 207 204 203 205 204 203 202 198 197 203 203 208 216 219 225 228 220 214 208 201 193 187 186 185 186
190 189 188 189 191 193 196 197 198 200 202 200 196 193 195 197 197 195 198 203 207 210 210 209 212 213 214 213 211 210 208 213 223 223 219 212 207 213 214 207 206 203 194 197 208 212 200 187 188 198 206 205 203 204 206 209 212 212 211 211 210 207 205 207 206 204 208 206 201 202 205 216 224 223 227 231 222 216 210 203 196 192 192 190 190
190 190 189 189 191 192 194 196 197 199 201 201 200 197 195 196 199 198 197 200 205 210 210 209 212 214 216 215 213 212 209 208 215 219 219 216 212 217 221 218 219 226 229 214 220 203 182 180 189 190 194 201 200 201 205 208 210 211 209 208 212 213 209 211 210 208 211 209 206 207 208 218 226 223 226 229 222 216 210 204 199 196 195 191 191
192 189 189 190 191 192 193 194 197 198 199 201 201 201 198 196 198 200 198 198 201 207 211 211 211 213 216 217 215 214 211 208 209 212 215 215 213 215 219 220 222 228 232 230 245 187 172 178 191 189 188 193 196 199 202 206 208 210 208 207 212 217 215 215 213 212 213 208 208 213 215 221 225 222 223 225 221 215 209 206 202 199 198 195 196
194 191 189 190 192 193 193 193 196 198 200 202 201 201 201 199 198 199 199 199 199 203 210 213 212 212 216 217 217 216 213 209 207 207 210 212 212 213 216 220 222 219 215 214 229 176 171 181 187 186 187 188 190 197 199 201 207 211 209 208 211 215 217 218 215 214 214 209 209 216 221 224 224 220 220 222 220 214 209 207 203 202 203 201 200
195 192 190 191 193 195 194 194 195 198 199 201 202 201 200 201 201 199 199 200 200 200 206 213 214 213 215 217 218 217 213 209 206 207 209 209 210 213 212 213 213 208 203 211 223 194 162 178 182 181 186 184 186 195 196 197 205 210 211 211 212 215 218 219 216 215 215 211 212 217 223 227 226 222 220 221 219 213 209 208 205 206 208 207 204
201 195 193 193 194 195 195 195 196 198 200 201 202 202 201 202 203 201 198 199 201 201 202 208 213 213 214 217 217 215 211 209 206 206 206 205 206 208 206 203 202 203 201 207 220 208 163 172 179 176 179 181 185 192 193 196 202 206 208 210 214 220 222 220 217 216 216 214 216 220 223 227 228 225 223 223 221 214 211 210 208 209 212 212 207
215 200 196 194 195 196 197 198 198 199 201 202 202 203 203 203 203 202 199 198 201 202 201 203 210 214 214 215 216 213 209 206 206 205 203 203 203 202 200 200 201 202 200 204 219 216 178 178 184 177 176 181 187 189 192 199 203 203 206 208 212 220 221 220 221 220 218 217 218 221 224 227 229 228 225 225 224 218 213 213 212 212 214 213 210
228 206 199 197 196 197 198 199 199 200 201 202 203 205 205 203 202 203 201 199 200 203 202 201 208 214 214 214 215 213 209 206 205 204 203 203 201 197 195 196 200 203 200 205 218 220 194 185 189 188 184 186 189 186 188 197 202 203 206 206 208 215 217 218 221 222 223 221 221 223 225 227 229 228 227 227 226 222 217 216 216 215 213 213 213
237 215 202 198 197 198 199 199 200 199 201 202 203 205 206 203 201 202 202 201 201 203 204 202 206 213 215 215 215 214 212 209 206 205 204 203 202 198 194 193 199 203 201 204 212 216 213 199 192 193 192 193 196 190 186 191 196 200 205 205 206 210 213 216 219 223 227 226 223 225 226 227 229 229 228 228 228 226 222 220 220 217 214 215 215
240 224 204 198 197 198 200 201 200 199 200 202 203 204 205 204 201 200 201 202 202 203 204 203 205 212 215 216 216 215 215 212 209 207 203 203 203 199 194 194 199 201 200 203 208 210 216 216 201 193 190 192 197 195 191 191 191 194 199 205 210 211 211 214 217 220 225 225 223 224 224 226 228 228 229 229 229 229 226 223 223 219 216 216 217
237 229 208 199 199 199 201 201 199 200 201 201 203 203 204 203 200 199 200 202 202 204 205 203 206 212 215 217 217 216 216 215 212 208 203 201 204 202 197 196 198 199 201 202 205 205 208 216 210 195 190 193 196 198 195 193 192 194 195 199 209 211 210 213 216 219 223 225 224 223 223 225 226 227 228 229 229 230 229 226 225 221 219 219 218
235 236 218 204 200 201 203 202 199 200 201 201 202 203 203 202 200 198 198 200 201 203 204 204 206 212 214 216 218 218 217 217 215 211 205 201 202 201 198 197 196 199 203 202 203 202 198 206 214 200 193 195 197 199 195 188 190 196 195 196 202 206 209 214 217 219 222 221 220 220 220 222 224 225 227 228 229 230 230 230 227 224 222 222 221
227 230 224 216 210 205 204 203 201 201 200 201 201 201 202 202 200 199 198 199 201 202 203 204 207 211 214 214 216 218 219 218 216 214 210 205 203 200 196 196 196 199 204 206 207 203 193 197 210 204 196 197 196 197 195 190 193 198 196 196 200 203 207 213 217 221 222 219 216 217 217 218 219 221 224 225 227 229 230 231 230 226 224 224 223
224 222 218 218 221 219 213 207 204 203 202 202 203 202 202 202 200 199 199 199 201 202 201 203 206 210 213 214 215 217 219 219 217 217 215 210 207 205 200 198 199 199 201 207 211 207 194 193 202 205 202 202 199 199 201 200 199 198 196 196 198 200 204 212 217 221 223 220 214 212 215 216 216 217 220 223 225 227 228 230 230 228 225 224 225
229 227 221 216 219 227 227 217 207 206 205 204 205 204 203 203 200 199 199 199 201 202 201 201 203 208 212 213 215 216 218 221 219 217 217 214 211 210 208 205 206 204 202 205 212 211 201 194 199 205 208 208 204 203 206 206 201 198 198 198 197 197 202 209 213 213 217 217 211 208 212 215 215 215 218 222 224 226 227 229 231 231 227 225 225
227 229 228 223 221 226 236 233 216 208 208 207 207 207 206 205 202 199 199 199 200 201 202 201 202 206 210 211 212 215 218 221 221 219 218 217 214 213 212 210 211 211 207 206 210 212 206 199 199 206 210 211 207 206 208 208 202 199 199 200 199 199 204 211 212 209 211 211 207 206 209 213 214 215 218 222 225 226 229 231 232 233 231 227 226
231 230 230 229 225 226 240 246 230 214 210 210 209 210 208 205 203 202 201 200 199 199 200 202 202 203 207 209 210 214 217 219 221 222 221 219 216 213 212 211 211 213 212 210 211 214 213 207 204 208 211 210 210 211 210 209 207 202 199 201 203 204 208 215 216 215 213 207 203 204 208 212 214 215 218 224 226 227 231 233 233 234 234 231 228
237 237 235 231 228 228 239 250 243 224 212 211 211 211 210 207 205 204 203 201 201 199 198 200 201 203 205 206 208 212 216 217 220 222 223 221 217 213 211 211 212 213 215 213 211 214 220 217 211 210 212 211 214 216 215 213 213 209 204 203 204 206 213 219 221 220 216 208 204 204 210 214 214 215 220 224 225 227 231 234 236 236 236 235 232
237 235 234 231 230 231 237 248 252 239 218 212 213 211 210 210 208 207 205 204 202 201 200 200 201 203 204 205 206 210 215 219 221 221 221 221 218 214 211 212 214 215 218 218 213 214 221 222 216 212 213 213 215 220 223 220 217 215 213 212 211 212 218 223 225 222 217 211 206 204 210 216 212 213 221 224 223 226 228 232 237 239 239 238 236
237 236 236 234 231 231 233 242 253 248 229 217 216 214 211 211 211 209 206 205 204 203 203 202 202 204 205 204 206 208 213 218 222 222 221 219 216 213 212 213 216 218 222 223 219 217 222 225 221 218 217 215 215 220 225 220 214 213 215 215 214 216 221 225 225 222 219 215 210 208 212 216 211 212 220 223 222 224 227 229 234 238 241 241 239
230 232 236 237 236 233 230 235 249 253 241 225 219 219 216 213 213 212 207 206 207 206 206 205 204 205 206 205 206 208 211 215 219 222 220 216 213 212 212 214 217 221 226 228 224 221 223 226 225 224 222 221 221 225 228 221 212 209 209 209 207 211 219 223 222 224 224 222 217 212 214 219 214 213 221 224 222 224 226 228 232 236 239 241 241
220 225 230 233 235 233 229 230 238 246 248 239 224 219 220 218 215 214 210 208 210 209 207 207 206 206 207 207 208 209 211 214 217 220 219 214 211 212 213 213 214 221 228 229 226 224 224 224 226 226 227 227 228 230 232 232 223 211 209 211 209 209 216 221 221 224 228 229 222 213 212 220 216 212 218 222 222 225 227 228 231 233 235 238 240
219 221 225 228 231 232 233 235 235 235 244 251 239 222 219 218 216 213 211 210 210 209 207 206 207 207 208 210 211 211 213 216 217 219 219 214 211 212 213 211 213 223 229 229 227 226 224 223 224 226 229 231 231 233 234 236 237 225 216 217 214 210 214 220 220 220 226 232 224 211 210 218 217 212 213 211 214 227 228 226 228 231 232 233 235